GFSCGP_2pvu_pres_021.txt.gz
Presure
166 224 234 225 137 234 237 217 232 212 232 229 202 215 215 208 210 203 200 197 192 188 190 187 199 203 199 194 206 195 179 126 129 146 129 151 157 161 143 124 174 158 155 137
224 229 224 231 235 232 213 227 208 204 224 199 223 223 211 204 208 202 193 194 202 201 189 206 182 200 133 174 206 154 138 145 150 121 155 156 149 121 139 175 183 109 153 188
230 184 230 177 219 214 206 208 208 201 224 225 223 219 217 208 211 203 191 190 187 182 180 161 170 187 167 120 178 174 165 173 192 190 171 154 168 162 176 153 186 191 165 145
235 149 195 221 223 214 207 204 199 221 221 210 225 219 220 215 206 204 199 194 192 191 197 196 126 111 175 199 146 182 182 131 180 143 147 176 156 124 117 187 189 189 141 204
225 139 230 219 219 215 206 208 197 219 201 196 210 200 201 197 193 193 188 191 189 198 193 196 145 185 190 170 175 164 182 182 180 162 172 190 188 119 185 154 197 200 195 213
150 234 220 223 218 211 211 203 204 214 200 199 189 186 181 185 184 189 196 199 191 185 181 181 160 186 179 172 125 170 175 178 182 176 184 170 168 179 164 189 203 206 212 205
239 246 237 227 225 219 219 204 200 192 185 186 187 185 121 202 198 191 183 179 179 181 180 173 142 160 172 175 179 182 122 182 179 143 157 195 178 206 206 213 212 191 207 169
228 236 242 249 240 224 220 188 204 185 181 185 191 194 198 199 138 179 169 171 172 182 180 172 174 122 161 178 181 185 188 128 188 193 194 206 209 207 209 196 157 224 231 233
222 233 240 242 237 240 223 193 191 185 188 188 192 199 189 176 172 172 188 180 177 174 177 163 180 139 177 182 192 193 197 198 197 193 177 171 208 202 221 217 225 223 238 234
209 203 201 234 228 228 216 195 196 187 189 191 181 180 185 173 181 183 185 184 183 171 177 176 171 178 183 190 206 202 204 201 212 202 204 185 196 218 221 136 169 250 188 257
208 213 216 213 205 202 199 196 191 167 176 176 179 181 177 186 182 182 176 170 172 180 172 160 169 180 192 195 207 204 205 202 195 194 211 216 216 168 198 225 241 274 262 274
189 194 186 205 204 201 187 173 186 183 179 177 177 179 171 177 177 178 171 179 175 167 163 125 176 197 201 201 199 198 206 207 215 210 212 213 223 226 247 278 282 286 268 268
187 186 185 185 184 184 189 197 176 180 179 178 169 178 179 171 172 169 169 169 104 179 179 194 196 199 194 192 199 204 209 215 209 212 210 211 226 256 255 280 295 282 276 320
195 194 188 175 192 185 194 168 177 173 175 173 173 169 177 173 168 171 181 150 185 177 192 191 193 195 196 121 169 136 206 211 211 208 212 226 246 286 290 296 301 302 315 290
201 196 182 183 187 179 177 178 190 184 184 190 131 174 168 173 180 180 191 192 188 191 191 191 123 123 132 125 131 203 209 209 209 213 222 257 284 301 299 307 319 310 285 393
178 179 178 183 180 186 186 197 188 174 173 169 174 176 185 187 178 203 199 194 190 91 182 147 201 203 189 132 211 211 203 217 214 225 231 297 314 316 322 317 281 372 432 412
188 183 180 181 184 189 189 179 176 185 179 172 182 179 88 196 202 195 166 190 159 191 196 184 207 203 214 212 207 204 211 221 222 238 303 320 326 315 273 318 439 420 413 433
190 192 190 186 193 179 185 179 178 181 176 189 188 184 185 100 98 109 197 193 192 200 191 208 207 208 211 211 204 213 230 234 248 298 324 325 277 285 366 430 416 421 412 399
210 177 187 182 172 176 178 172 193 166 184 181 186 197 88 117 150 189 191 190 198 204 202 207 209 215 213 209 215 238 244 260 297 328 325 303 299 427 423 407 412 395 385 373
196 183 180 190 176 172 188 186 188 182 116 187 185 89 114 202 191 193 193 197 202 204 212 215 223 215 226 219 244 251 262 297 324 330 286 290 431 421 402 405 389 374 364 356
175 186 189 185 186 196 193 178 184 191 186 194 93 101 197 191 197 200 199 206 212 209 224 227 219 222 225 248 259 269 306 311 330 276 314 410 418 404 397 377 371 361 357 354
176 174 190 186 190 188 187 187 195 150 201 207 106 168 98 199 183 201 204 213 205 214 222 213 222 238 249 257 312 311 305 329 274 315 411 411 404 392 375 367 354 356 360 370
170 186 182 188 192 199 187 205 201 191 196 178 191 197 198 202 203 224 211 211 220 218 226 238 247 257 259 319 306 299 327 269 320 424 409 401 389 372 368 352 353 368 352 338
186 127 101 179 89 197 192 189 191 146 189 200 210 211 213 210 214 215 219 215 221 227 259 249 261 268 316 305 311 327 272 321 414 406 389 384 373 366 350 352 366 347 342 342
193 198 156 198 192 168 205 192 114 102 197 153 202 207 201 210 211 213 215 230 256 252 263 298 322 310 308 321 303 274 320 424 407 390 379 377 361 355 352 363 347 341 339 325
193 189 195 190 192 195 197 203 191 196 201 208 203 215 213 210 234 227 248 254 305 332 327 322 311 309 301 273 290 335 417 410 392 376 372 362 357 354 359 345 333 339 324 370

GFSCGP_2pvu_pres_024.txt.gz
Presure
150 233 232 227 228 176 227 231 236 220 221 233 219 233 208 225 226 217 217 217 206 204 206 203 196 200 176 181 137 128 135 188 165 180 173 172 158 173 181 188 116 121 191 194
219 219 221 217 216 221 232 233 224 224 216 220 208 201 218 227 224 220 216 210 206 202 197 196 193 198 201 209 209 119 194 179 194 192 191 187 173 183 184 191 139 133 178 140
213 230 183 222 218 230 222 172 217 216 211 203 208 224 229 228 222 219 211 209 203 198 190 197 197 196 196 192 184 118 144 178 169 178 185 187 192 188 180 167 186 195 198 187
142 196 230 227 220 226 135 224 214 211 208 210 222 203 214 203 194 191 182 187 196 199 192 188 186 133 185 184 180 129 146 157 175 171 181 184 189 193 196 176 189 153 150 205
128 229 237 232 224 227 218 219 214 208 197 222 206 214 187 196 190 181 193 193 192 182 180 177 174 169 179 178 180 176 177 171 164 182 186 195 200 197 195 192 194 200 203 201
241 234 231 237 235 229 225 218 216 207 200 221 191 186 189 196 192 190 190 190 181 180 169 166 170 177 174 175 172 160 174 174 178 174 184 175 195 199 201 204 207 198 200 205
250 246 238 241 246 233 234 220 219 215 201 193 187 189 192 191 195 189 187 181 176 182 183 180 178 178 171 177 175 173 180 182 181 191 201 199 194 201 198 203 215 211 212 212
231 230 238 240 244 246 251 238 223 189 190 193 186 192 188 196 158 180 170 176 179 186 185 181 174 172 179 170 175 182 183 189 197 199 195 195 200 203 210 213 215 217 213 210
216 209 205 199 248 242 245 240 240 195 194 194 188 184 185 178 179 179 179 185 180 181 180 170 174 172 176 158 179 180 192 193 196 201 197 195 203 197 213 211 210 210 213 220
212 215 217 214 210 201 204 197 198 198 196 192 175 175 182 184 184 177 174 178 179 170 173 175 184 183 182 179 182 197 195 194 195 196 197 206 177 211 209 209 206 218 218 234
200 195 189 195 200 204 205 191 184 177 181 184 184 185 186 183 180 182 181 177 174 171 175 123 178 180 188 197 193 123 193 142 129 125 185 133 210 211 205 204 206 228 234 233
190 190 188 188 188 188 183 179 187 198 190 184 180 184 170 177 177 183 181 175 171 179 183 179 175 203 198 189 190 120 183 126 124 207 177 181 213 213 211 205 231 250 254 268
195 193 191 192 192 193 182 181 197 189 170 171 176 188 181 186 154 175 179 180 177 177 192 201 197 188 179 121 175 192 201 194 202 207 220 212 220 211 209 241 237 274 292 336
190 182 200 202 197 185 187 183 181 174 181 189 189 179 181 171 181 169 175 177 174 176 181 132 188 144 190 175 191 195 202 206 212 217 211 220 215 208 248 251 276 324 323 335
189 180 186 179 177 181 182 185 187 188 192 183 175 175 188 181 173 113 181 180 107 104 197 191 188 188 193 196 197 209 204 205 215 216 214 227 242 254 257 306 321 340 315 383
195 188 187 185 187 182 190 196 191 200 180 181 177 167 192 180 168 184 174 97 118 199 191 189 191 199 198 197 211 212 133 218 224 222 227 259 263 275 335 313 340 277 374 429
200 201 200 200 197 196 196 178 185 179 186 171 178 187 185 183 180 182 95 170 198 192 190 194 195 199 206 208 216 217 221 224 229 248 265 301 311 325 318 337 282 444 423 406
199 201 198 196 187 185 181 186 191 181 184 189 193 186 175 180 205 113 105 138 125 200 199 200 201 202 214 213 224 224 231 251 309 312 313 328 316 321 310 285 436 417 403 391
199 183 167 204 174 182 183 178 178 185 182 185 194 192 192 197 93 97 105 189 192 193 200 203 212 224 211 225 227 253 262 265 336 333 323 316 325 286 287 432 413 400 387 378
202 216 203 197 171 166 175 175 184 179 178 184 192 197 203 194 196 189 190 190 191 201 211 205 223 211 227 235 240 267 349 317 313 286 317 333 287 291 433 408 396 386 378 366
180 178 189 185 196 167 183 187 185 177 138 152 124 193 121 160 191 194 193 197 204 206 226 227 233 235 233 258 270 286 327 318 321 327 314 275 309 434 407 392 388 373 367 360
171 182 190 214 184 187 187 189 192 180 189 191 195 201 200 192 196 198 204 207 208 220 226 243 227 271 275 277 337 312 326 332 331 269 287 368 429 407 387 380 371 366 361 369
193 184 187 80 196 82 189 193 192 187 201 207 204 211 202 201 202 202 209 225 223 229 243 275 301 264 332 287 318 332 285 263 279 301 418 418 404 385 371 368 364 356 367 348
184 185 188 173 163 197 191 189 189 202 201 209 208 200 198 209 208 223 217 209 246 280 342 339 322 299 286 279 277 279 284 299 352 422 408 396 380 367 361 365 355 362 351 340
190 183 182 189 195 193 178 196 199 196 203 203 193 197 207 208 213 220 220 232 280 292 349 334 284 270 285 289 290 293 332 430 416 401 381 369 364 360 356 356 354 358 335 331
189 183 191 198 188 191 196 196 202 207 200 197 202 205 211 217 224 233 258 263 286 299 284 263 272 278 285 279 322 440 422 410 397 378 371 367 361 351 357 353 357 334 335 323

GFSCGP_2pvu_pres_027.txt.gz
Presure
162 139 137 142 142 145 237 238 235 234 229 233 230 230 229 235 222 212 228 231 230 225 219 214 211 211 207 204 204 205 199 194 192 184 140 158 142 175 175 180 183 185 196 181
222 141 166 214 151 164 232 233 227 243 233 223 229 217 224 222 216 230 231 229 220 213 198 195 196 207 209 193 188 183 188 191 186 176 140 164 182 177 175 182 184 191 202 206
221 222 221 227 243 230 235 230 203 229 225 218 222 176 212 226 214 235 201 200 190 196 203 207 197 191 181 180 176 166 191 180 177 175 183 183 184 190 195 200 205 164 203 201
217 235 238 235 236 226 231 141 229 221 224 213 203 209 218 215 216 192 144 193 193 196 202 192 185 181 185 182 187 187 184 177 182 186 179 185 184 183 189 192 202 202 200 146
231 223 221 219 206 229 146 203 229 221 222 211 205 207 209 207 195 189 197 192 197 197 191 188 179 186 187 190 184 181 174 183 178 183 180 171 182 189 194 194 189 192 192 129
259 248 239 233 232 229 225 229 219 221 217 211 200 205 228 105 191 194 191 193 192 191 185 180 184 184 179 182 177 174 178 173 177 183 178 190 196 187 192 190 180 185 198 203
247 233 242 240 237 237 242 242 233 227 220 224 204 200 199 197 195 193 189 188 187 181 185 183 177 179 183 169 171 175 179 173 176 185 194 197 185 192 194 194 185 155 142 199
236 227 228 247 252 259 234 247 243 244 235 232 197 193 193 179 189 188 182 181 185 191 181 173 177 177 177 172 132 173 181 182 202 200 188 183 190 125 119 120 137 127 168 212
220 214 206 205 205 199 205 254 237 239 234 202 201 203 206 195 178 180 186 184 190 184 180 172 174 176 173 176 179 171 194 198 187 184 192 194 195 185 192 184 214 214 211 223
206 201 203 204 207 210 208 206 204 199 196 196 191 194 191 191 185 184 187 186 177 182 187 173 172 178 178 179 180 190 197 162 192 158 132 190 193 199 204 214 219 218 227 229
194 199 191 191 192 192 192 197 194 186 186 184 183 193 188 186 177 181 188 189 184 171 177 172 170 178 166 181 182 194 196 193 192 186 195 194 177 210 215 216 230 225 229 235
198 195 193 194 192 196 193 192 186 190 186 187 199 194 186 179 193 193 185 170 181 183 175 175 173 181 182 189 187 189 193 194 193 197 202 179 219 224 225 228 237 235 242 249
189 190 189 190 186 201 201 193 181 175 179 184 181 183 190 190 186 181 179 179 171 184 180 173 139 111 186 187 196 193 188 195 201 210 170 221 223 231 234 237 240 252 262 353
189 185 188 192 185 186 185 184 173 178 178 180 188 182 191 184 168 174 171 173 179 176 140 129 171 143 179 199 199 188 195 198 207 211 225 234 229 234 237 247 269 285 338 306
189 191 193 194 190 190 190 187 185 184 179 190 193 186 178 174 179 178 170 171 186 188 190 99 102 194 197 187 196 196 196 210 224 229 240 237 239 243 287 281 343 327 337 345
189 186 193 195 204 205 208 210 202 210 214 183 178 182 180 173 176 182 181 83 188 191 100 143 196 197 193 194 195 201 223 218 236 245 235 259 258 340 309 281 340 335 279 291
186 193 189 192 193 194 193 197 202 200 173 180 177 180 178 184 182 181 180 180 184 189 198 195 188 196 196 207 220 216 232 246 242 280 350 338 295 323 300 283 291 295 312 413
194 191 191 191 200 198 207 196 195 184 187 178 167 175 181 182 181 181 176 200 166 150 198 196 196 172 204 222 226 225 235 249 277 305 303 281 281 299 297 294 305 334 432 411
195 199 193 206 196 141 195 187 187 176 178 177 168 170 184 186 179 190 177 199 199 199 193 192 184 210 223 218 225 236 245 279 312 287 271 283 288 288 300 317 418 432 408 393
194 202 200 214 198 189 175 185 179 192 92 183 183 178 180 185 188 188 193 203 198 195 199 210 214 215 226 231 238 249 264 262 312 293 287 309 309 314 352 426 419 403 386 375
196 190 199 217 189 174 177 171 191 167 187 181 177 177 192 189 187 201 193 199 198 206 207 215 224 231 242 245 250 288 261 326 317 315 315 316 353 425 413 400 389 375 372 360
183 209 167 120 169 127 149 183 187 191 183 180 186 192 188 201 199 201 202 203 205 211 212 229 238 242 239 265 274 282 329 326 328 327 338 426 419 401 392 380 367 364 366 365
198 97 221 76 184 135 185 185 171 181 179 200 193 191 199 198 193 205 199 207 211 226 225 224 241 239 278 288 329 325 335 335 344 432 427 411 407 401 386 373 367 372 359 357
196 213 192 189 180 181 170 191 102 199 204 191 198 199 204 205 204 201 209 216 225 225 232 246 252 293 283 340 322 345 347 411 436 422 459 479 464 451 429 406 381 365 357 360
194 185 183 170 175 169 187 195 195 199 193 189 195 203 205 201 204 206 223 220 234 240 249 254 272 328 337 322 350 356 449 430 447 466 445 440 432 413 369 380 364 355 357 339
192 183 176 184 188 192 196 201 200 204 189 200 204 206 207 211 224 227 238 227 243 244 270 266 301 350 352 328 449 438 456 450 411 390 385 376 369 365 376 363 353 349 342 325

GFSCGP_2pvu_pres_030.txt.gz
Presure
230 226 222 224 196 238 249 249 232 227 147 138 139 150 234 233 227 229 237 228 135 243 243 236 197 206 201 201 211 215 193 192 183 177 189 190 182 180 183 184 180 186 185 189
227 234 227 223 231 233 233 139 137 139 144 186 233 237 227 231 226 221 228 160 241 203 206 204 185 198 209 208 199 195 184 195 196 195 184 184 177 181 185 188 188 189 200 210
222 227 226 182 140 190 143 146 190 224 235 235 234 233 225 222 200 213 226 215 210 199 201 207 204 204 201 196 193 182 190 187 188 185 179 179 185 191 186 191 198 204 204 199
163 221 220 219 213 226 222 241 229 233 233 232 224 139 214 217 219 220 212 218 199 197 192 200 200 202 199 192 184 189 182 185 184 179 182 188 188 182 193 201 202 192 193 133
214 214 217 224 226 226 233 235 234 230 224 141 225 224 215 210 134 211 209 198 195 194 199 192 200 194 190 187 185 178 182 179 179 178 184 182 186 190 198 198 191 192 179 191
221 261 254 250 242 239 234 232 232 228 227 222 225 216 227 200 195 223 196 194 191 194 189 197 196 190 186 180 185 181 177 183 181 182 183 184 182 182 186 195 184 130 145 187
243 245 228 240 245 247 244 240 245 245 246 237 229 220 235 219 202 193 198 199 196 191 198 191 188 182 180 181 186 183 176 177 181 183 181 181 185 192 199 162 122 189 185 208
251 232 231 233 227 259 254 269 208 206 238 247 241 246 247 210 192 209 206 192 192 189 188 191 182 181 184 187 178 183 176 173 179 181 183 198 191 191 191 198 189 187 203 188
225 220 215 208 210 210 215 208 205 208 202 201 197 212 206 199 200 200 201 195 187 186 178 194 184 182 173 187 174 179 182 180 134 185 189 190 187 201 200 193 202 205 200 236
200 205 202 197 199 201 201 202 204 204 202 201 201 197 192 185 189 196 199 188 180 185 192 186 179 181 183 152 182 185 154 144 173 187 193 192 186 190 192 210 229 234 227 226
202 199 196 196 195 193 191 189 188 187 189 189 186 196 194 193 187 184 182 180 191 189 178 171 178 177 173 174 187 101 180 193 194 192 191 199 162 200 216 197 237 232 235 249
201 198 198 197 197 197 196 194 195 192 196 201 182 184 178 187 181 190 191 197 195 176 172 181 180 93 187 182 124 187 189 184 191 196 198 206 220 221 222 236 244 244 256 267
199 197 194 190 187 190 193 186 186 190 185 188 186 184 181 179 186 194 187 182 183 190 183 181 182 179 182 184 112 177 193 197 176 199 204 222 225 231 245 244 241 260 279 255
194 190 190 192 191 190 193 192 188 186 184 181 189 186 190 183 204 181 180 184 181 175 179 176 180 139 150 168 134 201 202 204 202 209 222 225 236 238 246 245 264 280 310 322
192 189 186 189 187 188 188 188 202 206 213 207 195 196 203 201 180 180 186 170 166 183 183 184 187 181 190 197 203 193 197 204 210 229 224 236 242 248 265 275 303 334 327 324
191 191 193 191 188 193 193 194 196 197 201 208 198 214 197 185 179 181 176 178 176 182 180 183 183 189 196 204 198 201 212 213 225 221 236 251 266 263 342 340 338 337 335 333
194 196 192 194 193 192 191 192 196 205 211 203 193 193 188 179 177 187 187 188 180 180 171 183 189 197 199 197 203 209 216 227 229 247 257 273 288 346 345 340 338 336 337 412
189 192 189 187 193 196 201 191 200 200 199 193 82 168 185 189 187 184 180 174 170 169 184 191 192 196 197 202 212 226 229 243 252 269 266 257 349 329 326 333 348 396 420 406
188 183 198 192 192 193 204 192 202 171 196 173 175 192 188 187 186 187 182 187 194 191 189 188 201 205 210 220 233 236 234 243 252 326 268 342 331 342 357 426 426 413 402 394
188 192 193 195 193 199 190 179 211 197 169 167 189 167 175 185 182 179 185 195 195 191 191 200 212 213 217 229 224 248 241 250 292 261 333 331 349 435 428 418 434 454 431 406
192 188 186 194 199 171 184 206 215 204 192 179 100 171 171 169 186 199 196 196 196 197 210 214 220 217 231 226 240 233 254 285 259 339 337 391 433 417 432 461 479 457 432 411
187 189 192 196 196 200 152 208 197 190 179 187 177 176 172 180 200 204 205 204 208 212 215 213 225 237 227 239 238 251 263 302 340 364 446 433 442 450 414 386 374 384 414 384
211 185 196 182 191 194 214 198 182 176 175 170 172 171 180 200 200 202 213 201 210 217 212 228 234 234 239 242 246 273 314 341 439 446 474 474 415 389 486 396 372 366 369 371
192 213 195 193 198 206 170 174 186 192 180 187 193 197 205 200 196 212 212 213 215 217 230 232 234 231 243 240 252 320 301 425 445 468 422 399 513 512 431 395 379 384 370 361
166 198 206 199 208 170 176 193 187 190 189 188 204 197 201 202 206 210 217 215 222 229 221 234 232 238 244 252 301 347 453 457 445 410 395 483 485 430 416 395 375 362 364 349
198 198 200 215 184 182 188 186 178 190 198 201 200 200 202 215 216 221 212 224 231 234 230 242 232 242 256 314 334 450 471 440 407 388 389 420 413 388 373 358 363 362 338 328

GFSCGP_2pvu_pres_033.txt.gz
Presure
239 244 240 227 238 180 224 240 238 239 229 226 225 227 225 241 220 161 211 209 229 229 236 234 244 242 214 215 202 211 201 217 200 200 188 183 189 191 192 185 178 183 192 182
230 233 234 236 232 233 237 241 240 238 238 236 213 134 142 237 234 233 232 222 218 227 239 231 220 199 215 195 209 194 208 199 200 187 187 186 184 188 183 184 190 187 189 189
229 229 217 225 218 193 209 216 224 152 181 228 234 236 228 229 235 224 220 195 227 214 236 211 207 204 203 195 202 205 204 191 193 188 183 186 191 188 182 183 191 190 190 195
168 211 212 216 220 220 224 219 225 234 237 228 222 230 226 229 224 219 210 212 217 221 219 215 200 201 195 199 198 204 184 191 186 188 190 190 188 185 181 191 182 185 187 195
218 217 218 220 219 220 238 244 235 234 230 230 228 229 235 221 210 219 213 224 228 211 208 202 198 198 199 198 187 193 192 184 183 187 184 187 188 193 189 184 186 195 195 196
218 218 219 253 262 255 241 246 243 240 237 237 236 242 242 244 227 212 205 215 216 190 203 193 192 193 193 188 189 189 186 191 189 180 186 174 187 184 176 196 201 192 195 198
209 241 241 232 236 240 244 246 249 244 238 237 248 253 276 267 278 247 204 201 201 204 212 210 200 195 183 176 180 195 191 182 186 180 185 184 189 188 187 190 193 184 200 193
259 242 234 235 241 247 247 246 210 214 231 211 215 218 210 211 217 225 226 206 198 198 188 192 190 185 181 199 192 180 180 180 182 184 122 183 169 196 195 189 198 202 195 202
223 225 218 217 208 207 207 210 212 211 209 209 205 202 201 202 204 200 196 188 190 202 201 190 182 197 194 190 183 183 185 180 177 96 190 109 132 199 204 196 195 198 212 223
209 215 217 215 212 205 204 203 200 198 197 202 202 198 197 192 193 193 195 191 181 189 190 201 195 195 196 189 186 178 184 182 186 153 165 187 180 191 193 190 209 219 232 235
207 202 201 200 202 197 195 196 193 192 189 189 191 207 212 212 205 187 182 191 184 187 195 191 182 190 177 172 178 184 186 178 184 184 185 185 191 188 203 214 229 234 230 245
206 201 200 202 199 199 198 197 195 197 201 193 188 190 191 190 189 194 192 191 199 193 205 187 183 180 183 186 187 183 170 182 182 183 192 191 200 212 217 231 230 245 253 269
194 200 204 200 198 197 196 194 194 190 190 192 199 204 213 203 200 202 205 205 207 197 191 191 188 186 190 183 181 167 183 183 187 191 192 210 223 219 233 238 233 258 266 274
189 195 190 193 194 196 188 194 193 192 189 187 193 197 198 200 202 202 208 209 192 182 173 180 185 188 185 160 180 184 183 193 192 188 205 222 222 240 250 247 247 261 276 265
190 192 190 188 190 192 195 194 194 193 189 194 194 192 210 210 209 202 197 174 171 173 187 188 185 185 185 182 186 185 199 201 193 212 216 228 248 241 236 239 255 279 307 364
193 195 195 193 192 198 197 194 196 197 199 196 207 200 218 201 200 190 169 178 193 187 177 178 181 181 182 198 194 209 197 206 215 216 235 246 227 257 252 268 286 365 380 438
193 189 191 191 194 193 192 187 194 188 199 201 201 191 204 196 199 186 171 185 181 169 172 179 178 182 198 200 207 210 207 214 225 233 240 252 254 251 335 324 375 457 436 428
188 187 186 182 186 189 184 183 199 193 193 195 205 185 206 189 198 185 181 182 172 180 175 177 180 197 200 204 210 215 219 227 234 244 254 257 268 278 331 388 432 432 450 440
193 195 192 189 188 178 184 190 181 193 192 200 199 207 203 199 196 189 185 180 181 174 178 180 196 201 212 211 219 215 227 239 243 231 259 247 318 359 464 451 447 430 404 383
199 203 212 212 214 215 186 192 80 192 200 194 189 206 199 191 185 182 179 180 178 180 186 197 200 218 213 219 226 230 237 238 240 249 263 256 366 459 450 444 407 388 460 442
200 203 206 202 204 210 215 213 197 202 199 196 204 210 190 184 175 173 181 180 193 200 195 202 206 219 225 222 224 232 246 234 256 304 271 374 481 454 421 401 467 462 469 403
201 201 201 201 211 221 231 210 196 201 199 204 202 182 177 166 181 184 188 187 193 205 201 215 216 219 225 222 231 242 245 265 282 266 377 490 449 416 397 489 515 432 403 381
192 192 203 97 207 226 220 218 218 206 205 207 191 166 178 181 187 182 185 192 211 205 221 213 223 225 226 237 245 249 261 258 262 378 492 448 413 393 389 380 414 390 372 359
197 156 127 206 210 217 216 208 209 199 197 189 183 187 192 196 205 208 205 209 208 214 221 226 221 228 239 246 251 260 257 269 382 492 445 407 379 385 379 390 380 374 371 353
196 208 210 210 206 223 211 194 196 198 194 183 196 200 199 204 210 210 207 212 218 215 226 224 229 235 243 238 259 248 252 397 497 449 409 382 362 377 380 390 379 357 338 343
117 191 206 212 206 209 196 188 188 192 188 191 201 203 210 206 206 202 210 217 220 226 232 227 237 234 250 257 296 311 425 507 464 416 388 367 352 372 363 360 341 342 337 317

GFSCGP_2pvu_pres_039.txt.gz
Presure
231 228 232 237 227 231 124 126 161 214 213 210 206 205 207 216 205 203 202 204 236 227 225 230 227 230 222 222 215 215 209 208 205 221 213 213 198 202 185 192 190 184 185 185
227 229 229 228 192 121 149 231 237 236 230 228 213 207 211 233 246 239 232 253 231 227 227 223 222 219 214 220 216 214 213 219 214 227 228 195 188 183 189 186 186 189 188 200
219 217 219 220 192 221 223 225 223 225 229 236 234 234 233 234 236 228 231 232 234 230 229 219 218 217 222 220 211 211 212 211 210 185 212 195 192 193 192 192 193 199 204 190
218 216 211 209 215 223 228 233 235 239 236 234 232 223 159 222 222 226 234 234 216 220 220 225 231 233 223 221 225 221 199 193 195 195 199 206 195 194 194 192 194 183 189 134
223 231 229 233 233 229 225 227 224 224 225 225 213 221 205 210 219 229 233 235 240 245 254 254 247 246 241 225 208 196 194 192 195 185 197 201 190 196 203 197 193 195 195 196
227 224 218 217 219 218 219 217 216 215 216 215 232 227 244 242 244 244 241 238 238 232 224 225 221 220 223 217 214 212 198 195 197 191 192 192 194 201 186 194 191 191 183 183
214 215 216 213 216 217 214 219 265 265 270 268 262 243 231 224 218 213 205 202 207 205 202 198 198 195 195 194 201 198 191 193 193 190 198 204 207 184 183 179 186 178 183 188
210 216 215 215 210 215 251 252 243 235 225 218 208 205 203 202 208 206 206 201 196 193 192 203 200 202 202 201 198 192 193 193 196 214 208 190 180 175 179 184 185 184 194 193
208 206 212 240 245 232 233 224 217 209 208 208 210 210 205 198 195 191 190 190 199 196 191 190 191 191 195 204 205 213 215 213 209 199 181 194 194 183 179 181 184 190 196 201
206 225 217 233 214 214 208 205 209 210 201 200 200 201 201 196 191 203 199 197 196 193 197 196 196 199 211 211 207 205 204 194 179 178 183 185 188 184 181 185 191 197 200 207
210 209 208 208 206 203 201 197 198 200 204 206 202 200 202 201 196 198 196 198 200 203 206 208 201 210 210 202 189 198 191 190 189 188 189 184 180 186 181 193 195 204 228 237
206 203 200 193 198 200 199 197 195 201 202 201 203 199 193 201 202 205 201 200 188 197 206 202 194 191 191 212 207 204 199 198 194 183 180 185 184 185 198 207 209 237 237 234
199 197 190 194 195 196 188 188 195 195 196 195 194 202 205 199 197 189 190 199 201 198 202 197 205 202 203 206 205 202 194 181 180 184 187 190 195 208 205 232 237 226 236 241
196 192 194 194 192 193 193 194 195 194 197 200 199 194 189 190 189 188 192 203 193 195 201 198 194 195 222 215 203 177 176 186 187 187 193 209 212 222 225 230 235 241 263 288
192 192 194 194 196 195 195 193 193 194 193 192 193 195 197 214 219 219 223 226 223 223 209 195 197 207 212 205 198 189 189 184 195 205 212 228 215 219 239 253 268 267 251 276
190 188 191 193 194 194 196 195 194 195 196 196 199 205 207 202 214 217 221 220 220 225 216 207 200 205 203 193 186 184 199 198 203 224 226 213 231 237 247 256 246 260 304 416
193 191 186 192 197 195 197 198 199 202 208 204 198 200 204 206 210 208 217 214 220 214 201 203 203 197 190 195 194 198 191 205 220 217 226 227 236 253 246 249 274 306 443 489
189 195 193 189 194 201 208 207 203 196 200 195 203 201 206 210 207 210 205 215 200 202 196 191 178 189 199 198 194 203 213 216 220 217 224 242 256 255 256 271 297 467 479 437
194 193 196 202 204 198 187 198 201 202 202 204 198 206 210 211 209 211 217 212 196 194 197 193 194 194 194 207 211 214 217 225 223 223 241 248 255 273 283 341 460 483 441 403
195 206 200 197 193 196 197 196 197 203 204 205 201 204 215 207 232 216 235 199 195 191 183 191 194 202 209 204 211 222 223 232 225 233 256 242 286 295 315 466 486 450 409 379
194 203 189 185 196 194 193 163 155 202 198 197 206 211 207 225 219 234 190 188 202 195 189 199 209 209 209 219 215 219 226 227 235 236 254 252 287 319 422 471 465 424 389 365
191 186 195 195 106 185 197 193 201 198 209 208 206 211 228 231 189 198 193 191 190 196 202 205 219 207 213 221 227 223 229 233 241 263 252 306 324 361 458 468 441 398 373 359
184 194 89 201 182 198 200 196 193 197 199 207 208 216 193 202 196 191 193 189 193 200 212 202 215 206 219 228 225 236 234 239 261 249 273 316 349 446 452 447 414 384 364 355
188 192 81 187 189 200 196 198 200 203 205 208 200 193 198 185 192 193 202 199 207 211 211 215 214 206 215 230 234 245 235 261 250 300 307 334 444 428 450 424 390 367 359 356
193 197 195 194 203 210 204 206 205 194 215 195 200 190 187 191 199 199 201 209 207 214 214 210 220 219 230 234 241 236 265 257 286 325 335 448 433 434 437 401 367 369 359 357
204 189 202 193 199 206 201 210 196 218 200 197 190 191 193 199 203 207 207 207 212 214 211 224 224 236 235 230 251 268 258 283 322 341 417 423 427 446 420 378 359 360 362 356